TimeCDT,TemperatureF,Dew PointF,Humidity,Sea Level PressureIn,VisibilityMPH,Wind Direction,Wind SpeedMPH,Gust SpeedMPH,PrecipitationIn,Events,Conditions,WindDirDegrees,DateUTC
12:53 AM,68.0,64.9,90,30.05,10.0,ESE,3.5,-,N/A,,Clear,120,2013-09-18 05:53:00
1:53 AM,68.0,64.9,90,30.05,10.0,Calm,Calm,-,N/A,,Clear,0,2013-09-18 06:53:00
2:53 AM,72.0,64.0,76,30.04,10.0,South,4.6,-,N/A,,Clear,170,2013-09-18 07:53:00
3:53 AM,66.9,64.9,93,30.05,9.0,Calm,Calm,-,N/A,,Clear,0,2013-09-18 08:53:00
4:53 AM,68.0,64.0,87,30.04,10.0,Calm,Calm,-,N/A,,Clear,0,2013-09-18 09:53:00
5:53 AM,66.0,64.0,93,30.05,9.0,Calm,Calm,-,N/A,,Clear,0,2013-09-18 10:53:00
6:53 AM,64.9,63.0,93,30.07,9.0,Calm,Calm,-,N/A,,Clear,0,2013-09-18 11:53:00
7:53 AM,71.1,64.0,78,30.08,10.0,Calm,Calm,-,N/A,,Clear,0,2013-09-18 12:53:00
8:53 AM,75.9,66.0,71,30.09,10.0,ESE,8.1,-,N/A,,Clear,110,2013-09-18 13:53:00
9:53 AM,81.0,70.0,69,30.10,10.0,SSE,8.1,-,N/A,,Clear,150,2013-09-18 14:53:00
10:53 AM,84.9,71.1,63,30.10,10.0,Calm,Calm,-,N/A,,Clear,0,2013-09-18 15:53:00
11:53 AM,86.0,72.0,63,30.09,10.0,SE,6.9,-,N/A,,Clear,130,2013-09-18 16:53:00
12:53 PM,90.0,71.1,54,30.07,10.0,Variable,6.9,-,N/A,,Partly Cloudy,0,2013-09-18 17:53:00
1:53 PM,91.9,72.0,52,30.04,10.0,East,5.8,-,N/A,,Partly Cloudy,90,2013-09-18 18:53:00
2:53 PM,91.0,69.1,48,30.01,10.0,East,9.2,-,N/A,,Partly Cloudy,80,2013-09-18 19:53:00
3:53 PM,91.9,69.1,47,30.00,10.0,East,10.4,-,N/A,,Partly Cloudy,80,2013-09-18 20:53:00
4:53 PM,91.9,69.1,47,29.99,10.0,East,10.4,-,N/A,,Partly Cloudy,80,2013-09-18 21:53:00
5:53 PM,89.1,68.0,50,29.99,10.0,East,8.1,-,N/A,,Scattered Clouds,90,2013-09-18 22:53:00
6:53 PM,84.9,71.1,63,30.00,10.0,East,5.8,-,N/A,,Clear,80,2013-09-18 23:53:00
7:53 PM,84.0,70.0,63,30.01,10.0,ESE,8.1,-,N/A,,Scattered Clouds,110,2013-09-19 00:53:00
8:53 PM,82.9,70.0,65,30.03,10.0,ESE,6.9,-,N/A,,Clear,110,2013-09-19 01:53:00
9:53 PM,82.0,70.0,67,30.04,10.0,ESE,8.1,-,N/A,,Clear,120,2013-09-19 02:53:00
10:53 PM,80.1,70.0,71,30.05,10.0,SE,8.1,-,N/A,,Clear,130,2013-09-19 03:53:00
11:53 PM,78.1,70.0,76,30.05,10.0,SE,6.9,-,N/A,,Clear,130,2013-09-19 04:53:00